Regional Weather Roundup
Issued by NWS

Home | Current Version | Previous Version | Graphics & Text | Print | Product List | Glossary On
Versions: 1 2 3 4 5 6 7 8 9 10 11 12 13 14 15 16 17 18 19 20 21 22 23 24 25 26 27
000
ASUS45 KBOU 180606
RWRCO

WEATHER ROUNDUP FOR COLORADO
NATIONAL WEATHER SERVICE DENVER/BOULDER CO
1200 AM MDT FRI APR 18 2014

NOTE: "FAIR" INDICATES FEW OR NO CLOUDS BELOW 12000 FEET WITH NO
SIGNIFICANT WEATHER AND/OR OBSTRUCTIONS TO VISIBILITY.

COZ001>005-013-030-031-180700-
...NORTHWEST COLORADO...

CITY           SKY/WX    TMP DP  RH WIND       PRES   REMARKS
CRAIG          CLEAR     36  27  69 E5        30.07R
HAYDEN         CLEAR     43  23  45 E6        30.10R
MEEKER         CLEAR     37  27  67 NE7       30.09R
MOUNT WERNER   CLEAR     37  10  32 SW15      30.23S
STEAMBOAT SPGS CLEAR     39  23  53 CALM      30.09R
WALDEN         PTCLDY    34  21  60 SE8       30.11S WCI  27
$$

COZ006>008-011-180700-
...WEST CENTRAL VALLEYS...

CITY           SKY/WX    TMP DP  RH WIND       PRES   REMARKS
GRAND JUNCTION CLEAR     50  26  39 E9        30.03R
MONTROSE       CLEAR     45  28  51 SE8       30.11R
EAGLE          CLEAR     39  27  60 E5        30.13R
RIFLE          CLEAR     44  27  51 CALM      30.09R
DELTA          CLEAR     49  28  44 NE8       30.08R
NUCLA            N/A     46  25  42 E12       30.13S
$$

COZ017>023-064>068-180700-
...SOUTHWEST COLORADO...

CITY           SKY/WX    TMP DP  RH WIND       PRES   REMARKS
DURANGO        CLEAR     39  17  41 NE3       30.17R
CORTEZ         CLEAR     37  23  56 CALM      30.12S
PAGOSA SPRINGS CLEAR     38  18  44 N3        30.22R
TELLURIDE      CLEAR     41  23  48 SE3       30.25S
WOLF CREEK PAS CLEAR     28  14  54 SW22      30.35R WCI  15
$$

COZ009-010-012-014-032>034-037-058>063-180700-
...CENTRAL COLORADO...

CITY           SKY/WX    TMP DP  RH WIND       PRES   REMARKS
ASPEN          CLEAR     35  22  58 S8        30.16R WCI  29
BUENA VISTA    CLEAR     38  24  57 CALM      30.16R
COPPER MTN     CLEAR     34  14  44 SW10G22   30.29R WCI  26
BERTHOUD PASS  FAIR      27  18  69 W22G33    30.26S WCI  12
COTTONWOOD PAS CLEAR     45  14  29 W14G23    30.22R
GUNNISON       PTCLDY    34  21  60 SE3       30.22R
KREMMLING      CLEAR     36  23  60 N3        30.12S
LEADVILLE      CLEAR     27  16  63 N3        30.21R
MONARCH PASS   CLEAR     30  16  55 W30       30.40R WCI  15
SALIDA         CLEAR     43  34  70 CALM      30.22R
SUNLIGHT       CLEAR     32  23  69 CALM      30.27R
WILKERSON PASS CLEAR     32  18  55 SW13G20   30.26S WCI  22
$$

COZ069>075-180700-
...SAN LUIS VALLEY/SANGRE DE CRISTO MOUNTAINS...

CITY           SKY/WX    TMP DP  RH WIND       PRES   REMARKS
ALAMOSA        CLEAR     41  26  55 S10       30.18R
LA VETA PASS   PTCLDY    36  19  51 SW14G29   30.22R
SAGUACHE       NOT AVBL
$$

COZ035-036-038>040-180700-
...NORTHERN COLORADO FRONT RANGE...

CITY           SKY/WX    TMP DP  RH WIND       PRES   REMARKS
DENVER INTL AP MOCLDY    45  32  60 S16       30.00S
DMNS CITY PARK   N/A     49  32  50 SE5G12    30.00S
AURORA         PTCLDY    48  32  53 S24       30.01R
FRONT RANGE AP NOT AVBL
ERIE MUNI ARPT PTCLDY    41  35  79 CALM      30.00S
BOULDER MUN AP PTCLDY    46  32  57 S5        29.99R
CENTENNIAL     PTCLDY    46  31  55 SE15      30.03R
BROOMFIELD     PTCLDY    45  32  61 W5        30.01S
FORT COLLINS   CLEAR     41  27  56 CALM      30.01R
LONGMONT       CLEAR     46  31  56 SW5       30.01R
$$

COZ041-046-047-076>085-087-088-180700-
...PIKES PEAK/PALMER DIVIDE AND SOUTHERN FOOTHILLS...

CITY           SKY/WX    TMP DP  RH WIND       PRES   REMARKS
COLO. SPRINGS  MOCLDY    41  33  73 N5        30.11S
A. F. ACADEMY  PTCLDY    38  33  81 E7        30.11F
ELLICOTT       NOT AVBL
FALCON         MOCLDY    35  33  90 CALM      30.13S
FORT CARSON    PTCLDY    38  33  81 NE2       30.10R
LIMON          CLEAR     35  33  92 SE12      30.10F WCI  27
MONUMENT HILL  PTCLDY    36  32  87 S17       30.09S
TRINIDAD       PTCLDY    47  33  58 SW8       30.09S
$$

COZ042>045-048>051-090-091-180700-
...NORTHEAST COLORADO...

CITY           SKY/WX    TMP DP  RH WIND       PRES   REMARKS
GREELEY ARPT   CLEAR     45  30  57 S9        30.00S
AKRON          CLEAR     42  35  76 S23G35    30.04S
BURLINGTON     CLEAR     39  36  89 S21       30.12S
WRAY           CLEAR     43  39  86 S15       30.09S
STERLING       CLEAR     46  39  76 S8        30.02S
HOLYOKE        CLEAR     43  37  81 S14       30.07S
FORT MORGAN    CLEAR     45  35  67 S14G20    30.03S
$$

COZ086-089-092>099-180700-
...SOUTHEAST COLORADO...

CITY           SKY/WX    TMP DP  RH WIND       PRES   REMARKS
PUEBLO         PTCLDY    45  37  73 NE8       30.06S
LA JUNTA       PTCLDY    45  35  68 SE10      30.08F
LAMAR          CLEAR     42  33  70 S21G30    30.11S
SPRINGFIELD      N/A     36  31  82 S14       30.17S
$$



USA.gov is the U.S. government's official web portal to all federal, state and local government web resources and services.